Location: *
(49.7115°N, 15.0136°E)
Time: 15:49:00
(UTC+00:00)

ATLAS 3B R/B - Pass Details

Date: 27 February 2020
Orbit: 1029 x 1166 km, 63.8° (Epoch: 12 March)

Event Time Altitude Azimuth Distance (km) Brightness Sun altitude
Rises 17:34:37 0° 306° (NW) 3,787 6.5 -9.9°
Reaches altitude 10° 17:37:41 10° 318° (NW) 2,839 5.5 -10.4°
Maximum altitude 17:43:17 27° 15° (NNE) 1,882 3.9 -11.3°
Enters shadow 17:48:14 13° 68° (ENE) 2,684 4.2 -12.1°
